Iron Mountain, MI

9:31 PM CDT on June 27, 2017 (GMT -0500)
Ford

Weather History for KIMT - November, 2010

Change the Weather History Date:

Sunday, November 14, 2010

  Actual Average Record
Temperature  
Mean Temperature 36 °F -  
Max Temperature 39 °F 39 °F 70 °F (1953)
Min Temperature 32 °F 22 °F 2 °F (1986)
Degree Days  
Heating Degree Days 30    
Moisture  
Dew Point 32 °F    
Average Humidity 90    
Maximum Humidity 100    
Minimum Humidity 79    
Precipitation  
Precipitation 0.04 in - - ()
Sea Level Pressure  
Sea Level Pressure 29.60 in    
Wind  
Wind Speed 9 mph (SW)    
Max Wind Speed 15 mph    
Max Gust Speed 21 mph    
Visibility 7 miles    
Events Rain , Snow    
Averages and records for this station are not official NWS values.
T = Trace of Precipitation, MM = Missing Value Source: NWS Daily Summary

Daily Weather History Graph

Daily Weather History Graph

Search for Another Location

Airport or City:

Trip Planner

Search our weather history database for the weather conditions in past years. The results will help you decide how hot, cold, wet, or windy it might be!

Date:

Astronomy

Nov. 14, 2010 Rise Set
Actual Time 6:50 AM CST 4:22 PM CST
Civil Twilight 6:18 AM CST 4:54 PM CST
Nautical Twilight 5:42 AM CST 5:30 PM CST
Astronomical Twilight 5:07 AM CST 6:05 PM CST
Moon 1:00 PM CST (11/14) No Moon Set
Length of Visible Light 10h 35m
Length of Day
9h 31m
First Quarter, 60% of the Moon is Illuminated
Nov 14
First Quarter
Nov 21
Full
Nov 28
Last Quarter
Dec 5
New
Dec 13
First Quarter

Hourly Weather History & Observations

Time (CST) Temp. Windchill Dew Point Humidity Pressure Visibility Wind Dir Wind Speed Gust Speed Precip Events Conditions
12:12 AM 39.2 °F 32.5 °F 37.4 °F 93% 29.63 in 6.0 mi South 10.4 mph 18.4 mph 0.00 in Rain Light Rain
12:33 AM 37.4 °F 32.1 °F 37.4 °F 100% 29.63 in 5.0 mi SSE 6.9 mph - 0.01 in   Overcast
1:25 AM 37.4 °F 30.8 °F 35.6 °F 93% 29.61 in 5.0 mi South 9.2 mph - 0.00 in   Overcast
1:54 AM 37.0 °F 31.0 °F 36.0 °F 96% 29.64 in 10.0 mi South 8.1 mph - 0.00 in   Overcast
2:07 AM 37.4 °F 32.1 °F 35.6 °F 93% 29.60 in 10.0 mi South 6.9 mph - N/A   Overcast
2:51 AM 37.4 °F 29.8 °F 35.6 °F 93% 29.59 in 10.0 mi South 11.5 mph - N/A   Overcast
2:54 AM 37.0 °F 30.4 °F 35.1 °F 93% 29.62 in 10.0 mi South 9.2 mph - N/A   Overcast
3:06 AM 37.4 °F 30.3 °F 35.6 °F 93% 29.58 in 10.0 mi South 10.4 mph 17.3 mph N/A   Overcast
3:54 AM 36.0 °F 30.3 °F 35.1 °F 97% 29.61 in 10.0 mi South 6.9 mph - N/A   Overcast
4:54 AM 36.0 °F 31.1 °F 35.1 °F 97% 29.60 in 10.0 mi South 5.8 mph - N/A   Overcast
5:54 AM 36.0 °F 29.6 °F 35.1 °F 97% 29.59 in 10.0 mi South 8.1 mph - N/A   Overcast
6:54 AM 36.0 °F 28.5 °F 35.1 °F 97% 29.59 in 10.0 mi South 10.4 mph - 0.00 in   Overcast
7:54 AM 36.0 °F 29.6 °F 35.1 °F 97% 29.58 in 10.0 mi South 8.1 mph - N/A   Overcast
8:54 AM 37.0 °F 30.4 °F 36.0 °F 96% 29.57 in 10.0 mi South 9.2 mph - N/A   Overcast
9:08 AM 37.4 °F 31.4 °F 35.6 °F 93% 29.54 in 10.0 mi SSW 8.1 mph - 0.00 in Rain Light Rain
9:37 AM 37.4 °F 30.8 °F 33.8 °F 87% 29.54 in 10.0 mi WSW 9.2 mph 17.3 mph 0.00 in   Overcast
9:54 AM 37.0 °F 29.8 °F 34.0 °F 89% 29.57 in 10.0 mi SW 10.4 mph - 0.00 in   Overcast
10:42 AM 37.4 °F 32.1 °F 35.6 °F 93% 29.54 in 9.0 mi WSW 6.9 mph - 0.00 in Rain Light Rain
10:54 AM 37.9 °F 31.5 °F 34.0 °F 86% 29.57 in 10.0 mi WSW 9.2 mph - 0.00 in Rain Light Rain
11:49 AM 37.4 °F 30.3 °F 33.8 °F 87% 29.54 in 9.0 mi West 10.4 mph - 0.00 in Rain Light Rain
11:54 AM 37.0 °F 29.3 °F 34.0 °F 89% 29.57 in 8.0 mi WSW 11.5 mph - 0.00 in Rain Light Rain
12:21 PM 37.4 °F 31.4 °F 33.8 °F 87% 29.54 in 10.0 mi West 8.1 mph - 0.00 in   Mostly Cloudy
12:31 PM 37.4 °F 31.4 °F 33.8 °F 87% 29.54 in 10.0 mi West 8.1 mph 17.3 mph 0.00 in   Overcast
12:54 PM 37.9 °F 30.9 °F 32.0 °F 79% 29.57 in 10.0 mi West 10.4 mph - 0.00 in   Mostly Cloudy
1:54 PM 37.0 °F 28.1 °F 30.9 °F 79% 29.59 in 10.0 mi West 15.0 mph 19.6 mph 0.00 in   Mostly Cloudy
2:23 PM 35.6 °F 28.6 °F 30.2 °F 81% 29.55 in 10.0 mi West 9.2 mph - 0.00 in Rain Light Rain
2:30 PM 35.6 °F 29.2 °F 30.2 °F 81% 29.56 in 10.0 mi West 8.1 mph - 0.00 in Rain Light Rain
2:54 PM 36.0 °F 27.5 °F 30.0 °F 79% 29.60 in 10.0 mi West 12.7 mph 20.7 mph 0.00 in   Overcast
3:20 PM 35.6 °F 29.2 °F 30.2 °F 81% 29.57 in 9.0 mi WSW 8.1 mph - 0.00 in Snow Light Snow
3:45 PM 33.8 °F 25.8 °F 30.2 °F 87% 29.57 in 2.0 mi WSW 10.4 mph 19.6 mph 0.00 in Snow Light Snow
3:52 PM 33.8 °F 25.8 °F 30.2 °F 87% 29.57 in 2.0 mi WSW 10.4 mph - 0.00 in Snow Light Snow
3:54 PM 33.1 °F 24.9 °F 30.9 °F 92% 29.61 in 2.0 mi WSW 10.4 mph - 0.00 in Snow Light Snow
3:57 PM 33.8 °F 25.3 °F 30.2 °F 87% 29.57 in 1.8 mi WSW 11.5 mph - 0.00 in Snow Light Snow
4:21 PM 33.8 °F 27.0 °F 30.2 °F 87% 29.58 in 2.0 mi WSW 8.1 mph - 0.01 in Snow Light Snow
4:49 PM 33.8 °F 27.7 °F 30.2 °F 87% 29.59 in 3.0 mi WSW 6.9 mph - 0.01 in Snow Light Snow
4:54 PM 33.1 °F 26.1 °F 30.9 °F 92% 29.62 in 3.0 mi SW 8.1 mph - 0.01 in Snow Light Snow
5:12 PM 32.0 °F 24.8 °F 30.2 °F 93% 29.59 in 2.5 mi WSW 8.1 mph - 0.00 in Snow Light Snow
5:54 PM 32.0 °F 26.4 °F 30.9 °F 96% 29.64 in 2.5 mi WSW 5.8 mph - 0.01 in Snow Light Snow
6:25 PM 32.0 °F 24.8 °F 30.2 °F 93% 29.60 in 2.5 mi SW 8.1 mph - 0.01 in Snow Light Snow
6:39 PM 32.0 °F 25.6 °F 30.2 °F 93% 29.60 in 2.0 mi WSW 6.9 mph - 0.01 in Snow Light Snow
6:47 PM 32.0 °F 25.6 °F 30.2 °F 93% 29.60 in 1.8 mi WSW 6.9 mph - 0.01 in Snow Light Snow
6:54 PM 32.0 °F 25.6 °F 30.9 °F 96% 29.65 in 2.0 mi WSW 6.9 mph - 0.01 in Snow Light Snow
7:03 PM 32.0 °F 24.8 °F 30.2 °F 93% 29.60 in 2.5 mi WSW 8.1 mph - 0.00 in Snow Light Snow
7:16 PM 32.0 °F 24.8 °F 30.2 °F 93% 29.61 in 4.0 mi SW 8.1 mph - 0.01 in Snow Light Snow
7:54 PM 32.0 °F 24.2 °F 30.0 °F 92% 29.65 in 3.0 mi WSW 9.2 mph - 0.01 in Snow Light Snow
8:12 PM 32.0 °F 24.8 °F 30.2 °F 93% 29.62 in 2.5 mi SW 8.1 mph - 0.00 in Snow Light Snow
8:30 PM 32.0 °F 24.2 °F 30.2 °F 93% 29.62 in 4.0 mi SW 9.2 mph - 0.00 in Snow Light Snow
8:54 PM 33.1 °F 26.1 °F 30.0 °F 89% 29.66 in 8.0 mi WSW 8.1 mph - 0.00 in Snow Light Snow
9:54 PM 32.0 °F 24.2 °F 30.0 °F 92% 29.67 in 9.0 mi WSW 9.2 mph 17.3 mph 0.00 in Snow Light Snow
10:54 PM 32.0 °F 24.8 °F 30.0 °F 92% 29.68 in 10.0 mi SW 8.1 mph - 0.00 in   Overcast
11:01 PM 32.0 °F 25.6 °F 30.2 °F 93% 29.64 in 10.0 mi SW 6.9 mph - N/A   Overcast
11:26 PM 33.8 °F 24.8 °F 28.4 °F 81% 29.65 in 10.0 mi WSW 12.7 mph - N/A   Overcast
11:54 PM 32.0 °F 25.6 °F 28.9 °F 88% 29.69 in 10.0 mi WSW 6.9 mph - N/A   Overcast